STARLINK-33965, 64755

Orbit data source: Space-Track

STARLINK-33965, 64755 is a payload satellite owned by SpaceX/Seattle (US) in LEO that was launched on Tue, 08 Jul 2025 UTC via an FALCON 9 launch vehicle from the Air Force Eastern Test Range (AFETR). Payload-class satellites include a variety of spacecraft equipped with specific instruments for various scientific and technological missions. These include communications satellites like Starlink; space stations such as the ISS; scientific satellites like the Hubble; Earth observation satellites from companies like Planet Labs, Umbra, and HawkEye 360; GPS; miniature CubeSats for education and research; and military/defense satellites.

Loading next visibility...
Identifier
64755, 2025-147A
Orbit
LEO
Country
Flag of USUS
Related business
Manufacturer
SpaceX/Seattle
Mission
Operational Commercial Communications
Bus & Motor
STARLINK V2MO, Unknown motor
Mass
575 kg wet, ~530 kg dry
Launch date (UTC)
2025-07-08 (11 months ago)
Launch vehicle
FALCON 9
Launch site
Air Force Eastern Test Range (AFETR)
Object type
Payload
Rocket body
Debris
Shape & HBR
Box + 2 Pan, 17.7 m
Radar Cross Section
36.964 m², Large (>1 m²)

Expand to show TLE details & history
Last TLE update: 19 hours ago

TLE from 19 hours ago
0 STARLINK-33965
1 64755U 25147A   26171.16465869  .00027495  00000-0  82163-3 0  9998
2 64755  53.1583 125.1760 0001080  90.8528 269.2599 15.34410357 54506
Epoch: 2026-06-20T03:57Z
TLE epoch observation values (Epoch: 2026-06-20T03:57:06.510Z)
Latitude
0.00002°
Longitude
157.51568°
Altitude
463.583 km
Speed
7.636 km/s
True Right ascension
08h 20m 42s
True Declination
0° 00' 00"
Sunlit
Object was in daylight at epoch
Visualization orbit readout
Latitude
Unknown
Longitude
Unknown
Altitude
Unknown
Speed
Unknown
Apparent Right ascension
Unknown
Apparent Declination
Unknown
Sunlit
N/A
Visualization observer readout
Local Sidereal Time
10:19:05
Azimuth
Unknown
Elevation
Unknown
Doppler factor
Unknown
Orbital elements
Apogee altitude
463.668 km
Perigee altitude
462.191 km
Semi-major axis
6,841.067 km
Eccentricity
0.00011
Inclination
53.1583°
RAAN
125.176°
Arg. of periapsis
90.8528°
True anomaly
269.24753°
Mean anomaly
269.2599°
Eccentric anomaly
269.25371°
Mean motion
3.83581 °/min
Orbital period
93.85 mins
BSTAR
0.00082163
Loading maneuver chart data...
Computing Atmospheric mass density...
Loading historical data...
Loading historical data...
Loading historical data...
Loading historical data...
Loading historical data...
Loading historical data...
Loading historical data...

Documentation

Showing up to 5 results
|